Location: Boitzum
(52.1496°N, 9.6943°E)
Time: 14:17:37
(UTC+00:00)

Cosmos 1470 Rocket - Visible Passes

Search period start: 19 April 2026 00:00
Search period end: 29 April 2026 00:00
Orbit: 596 x 627 km, 82.5° (Epoch: 19 April)

Date Brightness Start Highest point End Pass type
(mag) Time Alt. Az. Time Alt. Az. Time Alt. Az.
20 Apr 7.6 03:05:08 10° NE 03:05:31 10° NE 03:05:55 10° ENE visible
21 Apr 7.0 03:18:12 10° NNE 03:20:48 15° ENE 03:23:22 10° E visible
21 Apr 6.5 19:09:14 10° WSW 19:12:41 23° WNW 19:16:07 10° NNW visible
22 Apr 6.5 03:32:31 10° NNE 03:35:59 23° ENE 03:39:25 10° ESE visible
22 Apr 6.9 19:25:19 10° W 19:27:52 15° WNW 19:30:26 10° NNW visible
25 Apr 6.9 02:40:29 10° NNE 02:42:39 13° ENE 02:44:49 10° E visible
26 Apr 6.6 02:54:39 10° NNE 02:57:52 20° ENE 03:01:05 10° ESE visible
27 Apr 5.8 03:09:10 10° N 03:13:00 30° ENE 03:16:49 10° SE visible
